| time (UTC) | temp F | wind direction | speed knots | gust knots | rain 1hr in | rain 24hr in | rain mn in | humidity % | barometer mb |
| 20260505170106 | 76 | 210 | 2.6 | 2.6 | 0.00 | 0.00 | 0.00 | 52 | 1008.8 |
| 20260505165601 | 75 | 166 | 2.6 | 2.6 | 0.00 | 0.00 | 0.00 | 53 | 1008.7 |
| 20260505165057 | 75 | 126 | 3.5 | 5.2 | 0.00 | 0.00 | 0.00 | 51 | 1008.9 |
| 20260505164553 | 76 | 141 | 8.7 | 11.3 | 0.00 | 0.00 | 0.00 | 51 | 1009.0 |
| 20260505164051 | 75 | 163 | 6.1 | 8.7 | 0.00 | 0.00 | 0.00 | 50 | 1009.1 |
| 20260505163549 | 75 | 177 | 3.5 | 5.2 | 0.00 | 0.00 | 0.00 | 51 | 1009.2 |
| 20260505163045 | 74 | 226 | 5.2 | 6.1 | 0.00 | 0.00 | 0.00 | 54 | 1009.5 |
| 20260505162538 | 75 | 176 | 2.6 | 4.3 | 0.00 | 0.00 | 0.00 | 54 | 1009.2 |
| 20260505162036 | 76 | 206 | 4.3 | 5.2 | 0.00 | 0.00 | 0.00 | 53 | 1009.2 |
| 20260505161532 | 75 | 229 | 2.6 | 5.2 | 0.00 | 0.00 | 0.00 | 54 | 1009.7 |
| 20260505161029 | 74 | 217 | 2.6 | 4.3 | 0.00 | 0.00 | 0.00 | 53 | 1009.2 |
| 20260505160527 | 74 | 214 | 0.9 | 1.7 | 0.00 | 0.00 | 0.00 | 56 | 1009.6 |
| 20260505153004 | 72 | 280 | 2.6 | 4.3 | 0.00 | 0.00 | 0.00 | 57 | 1010.1 |
| 20260505152501 | 71 | 226 | 0.9 | 2.6 | 0.00 | 0.00 | 0.00 | 57 | 1010.2 |
| 20260505151955 | 72 | 204 | 2.6 | 2.6 | 0.00 | 0.00 | 0.00 | 56 | 1010.1 |
| 20260505151452 | 71 | 220 | 3.5 | 4.3 | 0.00 | 0.00 | 0.00 | 58 | 1010.3 |
| 20260505150949 | 70 | 222 | 1.7 | 2.6 | 0.00 | 0.00 | 0.00 | 58 | 1010.4 |
| 20260505150446 | 69 | 223 | 2.6 | 2.6 | 0.00 | 0.00 | 0.00 | 58 | 1010.5 |
| 20260505140415 | 66 | 256 | 1.7 | 1.7 | 0.00 | 0.00 | 0.00 | 68 | 1010.3 |
| 20260505124824 | 59 | 220 | 1.7 | 1.7 | 0.00 | 0.00 | 0.00 | 79 | 1010.6 |
| 20260505124321 | 60 | 208 | 0.9 | 1.7 | 0.00 | 0.00 | 0.00 | 78 | 1010.5 |
| 20260505123817 | 59 | 221 | 0.9 | 0.9 | 0.00 | 0.00 | 0.00 | 79 | 1010.6 |
| 20260505123313 | 59 | 249 | 1.7 | 1.7 | 0.00 | 0.00 | 0.00 | 79 | 1010.6 |
| 20260505122809 | 59 | 218 | 1.7 | 1.7 | 0.00 | 0.00 | 0.00 | 78 | 1010.6 |
| 20260505122307 | 60 | 241 | 0.9 | 0.9 | 0.00 | 0.00 | 0.00 | 78 | 1010.5 |
| 20260505121803 | 60 | 229 | 2.6 | 2.6 | 0.00 | 0.00 | 0.00 | 77 | 1010.8 |
| 20260505121300 | 59 | 213 | 1.7 | 1.7 | 0.00 | 0.00 | 0.00 | 79 | 1010.8 |
| 20260505120756 | 59 | 191 | 2.6 | 2.6 | 0.00 | 0.00 | 0.00 | 81 | 1010.9 |
| 20260505120253 | 58 | 188 | 4.3 | 5.2 | 0.00 | 0.00 | 0.00 | 81 | 1010.8 |
| 20260505115751 | 57 | 272 | 3.5 | 4.3 | 0.00 | 0.00 | 0.00 | 83 | 1010.7 |
| 20260505115249 | 57 | 224 | 0.9 | 0.9 | 0.00 | 0.00 | 0.00 | 83 | 1010.5 |
| 20260505114746 | 57 | 224 | 1.7 | 2.6 | 0.00 | 0.00 | 0.00 | 83 | 1010.5 |
| 20260505114242 | 56 | 218 | 0.0 | 0.9 | 0.00 | 0.00 | 0.00 | 85 | 1010.7 |
| 20260505113739 | 56 | 197 | 0.9 | 1.7 | 0.00 | 0.00 | 0.00 | 85 | 1010.8 |
| 20260505113236 | 55 | 227 | 1.7 | 1.7 | 0.00 | 0.00 | 0.00 | 87 | 1010.8 |
| 20260505112732 | 54 | 261 | 1.7 | 2.6 | 0.00 | 0.00 | 0.00 | 88 | 1010.9 |
| 20260505112230 | 54 | 226 | 1.7 | 1.7 | 0.00 | 0.00 | 0.00 | 88 | 1010.7 |
| 20260505111729 | 54 | 253 | 2.6 | 2.6 | 0.00 | 0.00 | 0.00 | 88 | 1010.7 |
| 20260505111226 | 54 | 244 | 2.6 | 2.6 | 0.00 | 0.00 | 0.00 | 88 | 1010.5 |
| 20260505110722 | 55 | 248 | 2.6 | 2.6 | 0.00 | 0.00 | 0.00 | 87 | 1010.7 |
| 20260505110219 | 54 | 254 | 2.6 | 2.6 | 0.00 | 0.00 | 0.00 | 88 | 1010.2 |
| 20260505102155 | 52 | 227 | 1.7 | 1.7 | 0.00 | 0.00 | 0.00 | 92 | 1009.9 |
| 20260505101654 | 52 | 222 | 1.7 | 1.7 | 0.00 | 0.00 | 0.00 | 92 | 1009.7 |
| 20260505101149 | 52 | 226 | 1.7 | 1.7 | 0.00 | 0.00 | 0.00 | 92 | 1009.8 |
| 20260505100645 | 51 | 208 | 0.9 | 1.7 | 0.00 | 0.00 | 0.00 | 92 | 1009.9 |
| 20260505100143 | 51 | 241 | 0.9 | 0.9 | 0.00 | 0.00 | 0.00 | 92 | 1009.6 |
| 20260505095638 | 51 | 218 | 1.7 | 1.7 | 0.00 | 0.00 | 0.00 | 92 | 1009.7 |
| 20260505095136 | 51 | 217 | 0.9 | 0.9 | 0.00 | 0.00 | 0.00 | 91 | 1009.5 |
| 20260505094632 | 51 | 220 | 0.9 | 1.7 | 0.00 | 0.00 | 0.00 | 91 | 1009.7 |
| 20260505094128 | 51 | 233 | 0.9 | 0.9 | 0.00 | 0.00 | 0.00 | 91 | 1009.6 |
| 20260505093624 | 51 | 228 | 0.9 | 0.9 | 0.00 | 0.00 | 0.00 | 91 | 1009.7 |
| 20260505093122 | 51 | 221 | 0.9 | 0.9 | 0.00 | 0.00 | 0.00 | 91 | 1009.7 |
| 20260505092619 | 51 | 222 | 0.9 | 0.9 | 0.00 | 0.00 | 0.00 | 91 | 1009.8 |
| 20260505092118 | 51 | 238 | 0.9 | 1.7 | 0.00 | 0.00 | 0.00 | 90 | 1009.8 |
| 20260505091614 | 52 | 238 | 1.7 | 1.7 | 0.00 | 0.00 | 0.00 | 90 | 1009.7 |
| 20260505091112 | 51 | 231 | 1.7 | 1.7 | 0.00 | 0.00 | 0.00 | 90 | 1009.5 |
| 20260505090610 | 52 | 240 | 0.9 | 1.7 | 0.00 | 0.00 | 0.00 | 90 | 1009.7 |
| 20260505090108 | 52 | 224 | 2.6 | 2.6 | 0.00 | 0.00 | 0.00 | 90 | 1009.7 |
| 20260505085605 | 52 | 226 | 0.9 | 1.7 | 0.00 | 0.00 | 0.00 | 90 | 1009.6 |
| 20260505085103 | 51 | 224 | 0.9 | 0.9 | 0.00 | 0.00 | 0.00 | 90 | 1009.7 |
| 20260505084601 | 51 | 219 | 0.9 | 0.9 | 0.00 | 0.00 | 0.00 | 90 | 1009.8 |
| 20260505084059 | 52 | 217 | 0.0 | 0.0 | 0.00 | 0.00 | 0.00 | 89 | 1009.8 |
| 20260505083555 | 52 | 221 | 0.0 | 0.9 | 0.00 | 0.00 | 0.00 | 89 | 1010.0 |
| 20260505083052 | 52 | 224 | 0.9 | 1.7 | 0.00 | 0.00 | 0.00 | 88 | 1009.8 |
| 20260505082548 | 52 | 218 | 0.9 | 1.7 | 0.00 | 0.00 | 0.00 | 88 | 1009.7 |
| 20260505082045 | 52 | 248 | 1.7 | 1.7 | 0.00 | 0.00 | 0.00 | 88 | 1009.7 |
| 20260505081541 | 52 | 233 | 1.7 | 1.7 | 0.00 | 0.00 | 0.00 | 88 | 1009.6 |
| 20260505081039 | 52 | 227 | 0.9 | 1.7 | 0.00 | 0.00 | 0.00 | 88 | 1009.7 |
| 20260505080535 | 52 | 223 | 0.9 | 1.7 | 0.00 | 0.00 | 0.00 | 87 | 1009.8 |
| 20260505080032 | 52 | 250 | 2.6 | 2.6 | 0.00 | 0.00 | 0.00 | 87 | 1009.7 |
| 20260505075527 | 52 | 222 | 0.9 | 0.9 | 0.00 | 0.00 | 0.00 | 87 | 1009.8 |
| 20260505075025 | 52 | 227 | 0.9 | 0.9 | 0.00 | 0.00 | 0.00 | 87 | 1009.9 |
| 20260505074522 | 52 | 221 | 0.9 | 1.7 | 0.00 | 0.00 | 0.00 | 87 | 1009.9 |
| 20260505074019 | 52 | 217 | 1.7 | 1.7 | 0.00 | 0.00 | 0.00 | 87 | 1009.6 |
| 20260505073516 | 52 | 227 | 1.7 | 1.7 | 0.00 | 0.00 | 0.00 | 86 | 1009.5 |
| 20260505073015 | 52 | 148 | 0.9 | 1.7 | 0.00 | 0.00 | 0.00 | 86 | 1009.5 |
| 20260505072510 | 52 | 231 | 1.7 | 1.7 | 0.00 | 0.00 | 0.00 | 86 | 1009.6 |
| 20260505072006 | 52 | 224 | 0.9 | 0.9 | 0.00 | 0.00 | 0.00 | 86 | 1009.8 |
| 20260505071502 | 52 | 213 | 0.9 | 1.7 | 0.00 | 0.00 | 0.00 | 85 | 1009.9 |
| 20260505071000 | 52 | 235 | 0.9 | 0.9 | 0.00 | 0.00 | 0.00 | 85 | 1009.7 |
| 20260505070457 | 52 | 222 | 2.6 | 2.6 | 0.00 | 0.00 | 0.00 | 85 | 1009.9 |
| 20260505065952 | 52 | 226 | 1.7 | 1.7 | 0.00 | 0.00 | 0.00 | 84 | 1009.9 |
| 20260505065449 | 52 | 232 | 0.9 | 1.7 | 0.00 | 0.00 | 0.00 | 85 | 1010.0 |
| 20260505064946 | 52 | 224 | 0.9 | 0.9 | 0.00 | 0.00 | 0.00 | 84 | 1009.9 |
| 20260505064442 | 52 | 222 | 0.9 | 0.9 | 0.00 | 0.00 | 0.00 | 84 | 1010.1 |
| 20260505063941 | 52 | 224 | 0.9 | 1.7 | 0.00 | 0.00 | 0.00 | 84 | 1010.2 |
| 20260505063437 | 52 | 225 | 0.9 | 0.9 | 0.00 | 0.00 | 0.00 | 83 | 1009.9 |
| 20260505062934 | 52 | 226 | 1.7 | 1.7 | 0.00 | 0.00 | 0.00 | 83 | 1010.0 |
| 20260505062431 | 52 | 224 | 0.9 | 1.7 | 0.00 | 0.00 | 0.00 | 82 | 1009.9 |
| 20260505061928 | 52 | 223 | 0.0 | 0.9 | 0.00 | 0.00 | 0.00 | 82 | 1010.0 |
| 20260505061426 | 52 | 226 | 0.9 | 1.7 | 0.00 | 0.00 | 0.00 | 83 | 1009.9 |
| 20260505060923 | 52 | 242 | 0.9 | 1.7 | 0.00 | 0.00 | 0.00 | 82 | 1010.1 |
| 20260505060420 | 52 | 234 | 0.9 | 0.9 | 0.00 | 0.00 | 0.00 | 82 | 1010.1 |
| 20260505055916 | 52 | 221 | 0.0 | 0.0 | 0.00 | 0.00 | 0.00 | 82 | 1010.0 |
| 20260505055412 | 52 | 222 | 0.9 | 0.9 | 0.00 | 0.00 | 0.00 | 81 | 1010.4 |
| 20260505054909 | 53 | 220 | 0.9 | 1.7 | 0.00 | 0.00 | 0.00 | 81 | 1010.4 |
| 20260505054407 | 53 | 224 | 1.7 | 2.6 | 0.00 | 0.00 | 0.00 | 81 | 1010.4 |
| 20260505053905 | 53 | 234 | 2.6 | 2.6 | 0.00 | 0.00 | 0.00 | 80 | 1010.5 |
| 20260505053401 | 53 | 261 | 2.6 | 2.6 | 0.00 | 0.00 | 0.00 | 80 | 1010.4 |
| 20260505052858 | 53 | 225 | 0.9 | 0.9 | 0.00 | 0.00 | 0.00 | 80 | 1010.3 |
| 20260505052355 | 53 | 236 | 1.7 | 1.7 | 0.00 | 0.00 | 0.00 | 80 | 1010.4 |
| 20260505051852 | 53 | 232 | 1.7 | 1.7 | 0.00 | 0.00 | 0.00 | 80 | 1010.4 |
| 20260505051349 | 53 | 249 | 1.7 | 1.7 | 0.00 | 0.00 | 0.00 | 79 | 1010.4 |
| 20260505050847 | 53 | 233 | 0.9 | 0.9 | 0.00 | 0.00 | 0.00 | 79 | 1010.5 |
| 20260505050346 | 53 | 227 | 0.9 | 0.9 | 0.00 | 0.00 | 0.00 | 79 | 1010.5 |
| 20260505041313 | 53 | 220 | 1.7 | 1.7 | 0.00 | 0.00 | 0.00 | 78 | 1010.7 |
| 20260505040810 | 53 | 226 | 0.9 | 0.9 | 0.00 | 0.00 | 0.00 | 78 | 1010.8 |
| 20260505040308 | 53 | 205 | 1.7 | 2.6 | 0.00 | 0.00 | 0.00 | 77 | 1010.7 |
| 20260505035804 | 53 | 226 | 0.9 | 1.7 | 0.00 | 0.00 | 0.00 | 77 | 1010.6 |
| 20260505035300 | 53 | 217 | 0.9 | 0.9 | 0.00 | 0.00 | 0.00 | 77 | 1010.6 |
| 20260505034757 | 53 | 219 | 0.9 | 0.9 | 0.00 | 0.00 | 0.00 | 77 | 1010.8 |
| 20260505034254 | 54 | 217 | 0.9 | 1.7 | 0.00 | 0.00 | 0.00 | 76 | 1010.8 |
| 20260505033750 | 54 | 226 | 0.9 | 0.9 | 0.00 | 0.00 | 0.00 | 76 | 1010.8 |
| 20260505033248 | 54 | 220 | 0.9 | 1.7 | 0.00 | 0.00 | 0.00 | 76 | 1010.6 |
| 20260505032746 | 54 | 223 | 2.6 | 4.3 | 0.00 | 0.00 | 0.00 | 75 | 1010.6 |
| 20260505032242 | 54 | 226 | 1.7 | 1.7 | 0.00 | 0.00 | 0.00 | 75 | 1010.6 |
| 20260505031739 | 54 | 223 | 1.7 | 2.6 | 0.00 | 0.00 | 0.00 | 75 | 1010.6 |
| 20260505031235 | 54 | 252 | 1.7 | 1.7 | 0.00 | 0.00 | 0.00 | 75 | 1010.6 |
| 20260505030733 | 55 | 224 | 1.7 | 2.6 | 0.00 | 0.00 | 0.00 | 74 | 1010.6 |
| 20260505030229 | 55 | 245 | 1.7 | 1.7 | 0.00 | 0.00 | 0.00 | 74 | 1010.7 |
| 20260505025724 | 55 | 218 | 0.9 | 1.7 | 0.00 | 0.00 | 0.00 | 74 | 1010.5 |
| 20260505025223 | 55 | 227 | 0.9 | 0.9 | 0.00 | 0.00 | 0.00 | 74 | 1010.4 |
| 20260505024721 | 55 | 224 | 1.7 | 1.7 | 0.00 | 0.00 | 0.00 | 74 | 1010.9 |
| 20260505024218 | 55 | 252 | 1.7 | 1.7 | 0.00 | 0.00 | 0.00 | 74 | 1010.6 |
| 20260505023715 | 55 | 234 | 2.6 | 2.6 | 0.00 | 0.00 | 0.00 | 73 | 1010.8 |
| 20260505023212 | 55 | 238 | 1.7 | 1.7 | 0.00 | 0.00 | 0.00 | 73 | 1010.7 |
| 20260505022710 | 55 | 215 | 0.9 | 1.7 | 0.00 | 0.00 | 0.00 | 73 | 1010.8 |
| 20260505022206 | 55 | 222 | 1.7 | 1.7 | 0.00 | 0.00 | 0.00 | 73 | 1010.8 |
| 20260505021702 | 55 | 219 | 2.6 | 4.3 | 0.00 | 0.00 | 0.00 | 72 | 1010.6 |
| 20260505021154 | 55 | 241 | 2.6 | 2.6 | 0.00 | 0.00 | 0.00 | 72 | 1010.6 |
| 20260505020650 | 55 | 223 | 0.9 | 0.9 | 0.00 | 0.00 | 0.00 | 72 | 1010.8 |
| 20260505020145 | 55 | 230 | 1.7 | 1.7 | 0.00 | 0.00 | 0.00 | 71 | 1010.4 |
| 20260505015643 | 56 | 220 | 2.6 | 2.6 | 0.00 | 0.00 | 0.00 | 71 | 1010.4 |
| 20260505015139 | 56 | 189 | 0.9 | 1.7 | 0.00 | 0.00 | 0.00 | 70 | 1010.4 |
| 20260505014636 | 56 | 217 | 2.6 | 4.3 | 0.00 | 0.00 | 0.00 | 70 | 1010.6 |
| 20260505014134 | 56 | 222 | 1.7 | 2.6 | 0.00 | 0.00 | 0.00 | 70 | 1010.5 |
| 20260505013631 | 56 | 189 | 3.5 | 5.2 | 0.00 | 0.00 | 0.00 | 69 | 1010.6 |
| 20260505013128 | 56 | 157 | 3.5 | 4.3 | 0.00 | 0.00 | 0.00 | 69 | 1010.6 |
| 20260505012626 | 56 | 223 | 1.7 | 1.7 | 0.00 | 0.00 | 0.00 | 68 | 1010.3 |
| 20260505012123 | 56 | 219 | 5.2 | 6.1 | 0.00 | 0.00 | 0.00 | 68 | 1010.3 |
| 20260505011618 | 57 | 224 | 2.6 | 4.3 | 0.00 | 0.00 | 0.00 | 67 | 1010.6 |
| 20260505011116 | 57 | 205 | 3.5 | 4.3 | 0.00 | 0.00 | 0.00 | 66 | 1010.2 |
| 20260505010610 | 57 | 344 | 4.3 | 5.2 | 0.00 | 0.00 | 0.00 | 66 | 1010.1 |
| 20260505005558 | 57 | 205 | 1.7 | 1.7 | 0.00 | 0.00 | 0.00 | 65 | 1009.9 |
| 20260505005056 | 57 | 202 | 2.6 | 2.6 | 0.00 | 0.00 | 0.00 | 65 | 1009.9 |
| 20260505004553 | 57 | 229 | 5.2 | 8.7 | 0.00 | 0.00 | 0.00 | 64 | 1009.7 |
| 20260505004049 | 57 | 186 | 2.6 | 4.3 | 0.00 | 0.00 | 0.00 | 64 | 1010.0 |
| 20260505003547 | 58 | 211 | 2.6 | 2.6 | 0.00 | 0.00 | 0.00 | 63 | 1009.9 |
| 20260505003044 | 58 | 209 | 3.5 | 6.1 | 0.00 | 0.00 | 0.00 | 62 | 1009.6 |
| 20260505002543 | 58 | 253 | 4.3 | 5.2 | 0.00 | 0.00 | 0.00 | 62 | 1009.4 |
| 20260505002038 | 59 | 210 | 0.9 | 1.7 | 0.00 | 0.00 | 0.00 | 61 | 1009.6 |
| 20260505001534 | 59 | 217 | 1.7 | 1.7 | 0.00 | 0.00 | 0.00 | 61 | 1009.2 |
| 20260505001032 | 59 | 222 | 1.7 | 1.7 | 0.00 | 0.00 | 0.00 | 59 | 1009.4 |
| 20260505000529 | 59 | 256 | 2.6 | 4.3 | 0.00 | 0.00 | 0.00 | 59 | 1009.2 |
| 20260505000027 | 59 | 255 | 2.6 | 2.6 | 0.00 | 0.00 | 0.00 | 59 | 1009.1 |
| 20260504235523 | 60 | 204 | 1.7 | 2.6 | 0.00 | 0.00 | 0.00 | 57 | 1008.9 |
| 20260504235020 | 60 | 8 | 2.6 | 4.3 | 0.00 | 0.00 | 0.00 | 57 | 1008.8 |
| 20260504234517 | 60 | 233 | 2.6 | 4.3 | 0.00 | 0.00 | 0.00 | 56 | 1008.9 |
| 20260504234014 | 61 | 213 | 3.5 | 5.2 | 0.00 | 0.00 | 0.00 | 56 | 1009.0 |
| 20260504233509 | 61 | 195 | 3.5 | 5.2 | 0.00 | 0.00 | 0.00 | 56 | 1008.9 |
| 20260504233006 | 61 | 232 | 3.5 | 4.3 | 0.00 | 0.00 | 0.00 | 55 | 1008.8 |
| 20260504232503 | 61 | 207 | 4.3 | 5.2 | 0.00 | 0.00 | 0.00 | 54 | 1008.8 |
| 20260504232001 | 62 | 224 | 2.6 | 2.6 | 0.00 | 0.00 | 0.00 | 54 | 1008.8 |
| 20260504231457 | 62 | 285 | 4.3 | 7.0 | 0.00 | 0.00 | 0.00 | 53 | 1008.5 |
| 20260504230953 | 62 | 208 | 1.7 | 2.6 | 0.00 | 0.00 | 0.00 | 53 | 1008.7 |
| 20260504230450 | 63 | 248 | 2.6 | 2.6 | 0.00 | 0.00 | 0.00 | 53 | 1008.5 |
| 20260504225949 | 63 | 221 | 1.7 | 1.7 | 0.00 | 0.00 | 0.00 | 53 | 1008.4 |
| 20260504225445 | 63 | 203 | 2.6 | 4.3 | 0.00 | 0.00 | 0.00 | 52 | 1008.5 |
| 20260504224942 | 63 | 227 | 2.6 | 2.6 | 0.00 | 0.00 | 0.00 | 52 | 1008.5 |
| 20260504224439 | 63 | 213 | 3.5 | 4.3 | 0.00 | 0.00 | 0.00 | 51 | 1008.4 |
| 20260504223936 | 63 | 97 | 4.3 | 7.0 | 0.00 | 0.00 | 0.00 | 51 | 1008.3 |
| 20260504223432 | 63 | 240 | 4.3 | 6.1 | 0.00 | 0.00 | 0.00 | 50 | 1008.3 |
| 20260504222928 | 64 | 222 | 1.7 | 2.6 | 0.00 | 0.00 | 0.00 | 50 | 1008.6 |
| 20260504222426 | 64 | 218 | 2.6 | 2.6 | 0.00 | 0.00 | 0.00 | 50 | 1008.6 |
| 20260504221923 | 64 | 248 | 5.2 | 6.1 | 0.00 | 0.00 | 0.00 | 48 | 1008.4 |
| 20260504221420 | 64 | 229 | 2.6 | 4.3 | 0.00 | 0.00 | 0.00 | 47 | 1008.6 |
| 20260504220917 | 65 | 246 | 1.7 | 1.7 | 0.00 | 0.00 | 0.00 | 47 | 1008.5 |
| 20260504220414 | 65 | 256 | 5.2 | 7.0 | 0.00 | 0.00 | 0.00 | 46 | 1008.6 |
| 20260504215911 | 65 | 217 | 6.1 | 7.8 | 0.00 | 0.00 | 0.00 | 46 | 1008.5 |
| 20260504215407 | 65 | 112 | 3.5 | 6.1 | 0.00 | 0.00 | 0.00 | 45 | 1008.6 |
| 20260504214904 | 66 | 275 | 6.1 | 7.0 | 0.00 | 0.00 | 0.00 | 44 | 1008.4 |
| 20260504214400 | 66 | 266 | 4.3 | 6.1 | 0.00 | 0.00 | 0.00 | 44 | 1008.5 |
| 20260504213857 | 66 | 223 | 3.5 | 7.0 | 0.00 | 0.00 | 0.00 | 44 | 1008.4 |
| 20260504213353 | 66 | 237 | 4.3 | 6.1 | 0.00 | 0.00 | 0.00 | 44 | 1008.5 |
| 20260504212850 | 66 | 235 | 5.2 | 6.1 | 0.00 | 0.00 | 0.00 | 43 | 1008.4 |
| 20260504212346 | 67 | 229 | 4.3 | 5.2 | 0.00 | 0.00 | 0.00 | 44 | 1008.5 |
| 20260504211844 | 67 | 207 | 3.5 | 6.1 | 0.00 | 0.00 | 0.00 | 45 | 1008.0 |
| 20260504211340 | 67 | 255 | 2.6 | 2.6 | 0.00 | 0.00 | 0.00 | 45 | 1008.2 |
| 20260504210838 | 67 | 274 | 4.3 | 6.1 | 0.00 | 0.00 | 0.00 | 43 | 1008.2 |
| 20260504210335 | 67 | 201 | 4.3 | 7.0 | 0.00 | 0.00 | 0.00 | 42 | 1008.2 |
| 20260504205832 | 67 | 206 | 5.2 | 6.1 | 0.00 | 0.00 | 0.00 | 41 | 1008.2 |
| 20260504205329 | 69 | 234 | 3.5 | 4.3 | 0.00 | 0.00 | 0.00 | 41 | 1008.1 |
| 20260504204827 | 69 | 265 | 2.6 | 2.6 | 0.00 | 0.00 | 0.00 | 41 | 1008.2 |
| 20260504204326 | 69 | 220 | 0.0 | 0.9 | 0.00 | 0.00 | 0.00 | 41 | 1008.3 |
| 20260504203825 | 69 | 205 | 4.3 | 6.1 | 0.00 | 0.00 | 0.00 | 39 | 1008.4 |
| 20260504203321 | 69 | 228 | 1.7 | 4.3 | 0.00 | 0.00 | 0.00 | 39 | 1007.9 |
| 20260504202817 | 69 | 251 | 2.6 | 4.3 | 0.00 | 0.00 | 0.00 | 39 | 1008.3 |
| 20260504202315 | 69 | 160 | 7.8 | 9.6 | 0.00 | 0.00 | 0.00 | 39 | 1008.3 |
| 20260504201811 | 69 | 226 | 2.6 | 4.3 | 0.00 | 0.00 | 0.00 | 38 | 1008.2 |
| 20260504201308 | 69 | 237 | 5.2 | 6.1 | 0.00 | 0.00 | 0.00 | 39 | 1008.3 |
| 20260504200806 | 69 | 215 | 2.6 | 2.6 | 0.00 | 0.00 | 0.00 | 38 | 1008.5 |
| 20260504200302 | 70 | 207 | 1.7 | 4.3 | 0.00 | 0.00 | 0.00 | 39 | 1008.3 |
| 20260504195758 | 70 | 252 | 4.3 | 7.8 | 0.00 | 0.00 | 0.00 | 39 | 1008.3 |
| 20260504195254 | 70 | 222 | 4.3 | 7.0 | 0.00 | 0.00 | 0.00 | 38 | 1008.5 |
| 20260504194751 | 69 | 127 | 3.5 | 6.1 | 0.00 | 0.00 | 0.00 | 38 | 1008.3 |
| 20260504194247 | 69 | 213 | 2.6 | 4.3 | 0.00 | 0.00 | 0.00 | 38 | 1008.4 |
| 20260504193744 | 70 | 200 | 5.2 | 7.8 | 0.00 | 0.00 | 0.00 | 37 | 1008.4 |
| 20260504193241 | 69 | 135 | 3.5 | 6.1 | 0.00 | 0.00 | 0.00 | 37 | 1008.3 |
| 20260504192739 | 71 | 262 | 1.7 | 2.6 | 0.00 | 0.00 | 0.00 | 37 | 1008.4 |
| 20260504192237 | 70 | 205 | 5.2 | 7.0 | 0.00 | 0.00 | 0.00 | 35 | 1008.4 |
| 20260504191736 | 70 | 357 | 4.3 | 6.1 | 0.00 | 0.00 | 0.00 | 36 | 1008.4 |
| 20260504191232 | 69 | 295 | 1.7 | 2.6 | 0.00 | 0.00 | 0.00 | 37 | 1008.7 |
| 20260504190727 | 71 | 177 | 4.3 | 5.2 | 0.00 | 0.00 | 0.00 | 35 | 1008.8 |
| 20260504190224 | 71 | 183 | 2.6 | 5.2 | 0.00 | 0.00 | 0.00 | 35 | 1008.7 |
| 20260504185721 | 69 | 255 | 1.7 | 1.7 | 0.00 | 0.00 | 0.00 | 36 | 1008.7 |
| 20260504185218 | 70 | 268 | 2.6 | 4.3 | 0.00 | 0.00 | 0.00 | 33 | 1008.7 |
| 20260504184714 | 71 | 318 | 5.2 | 7.0 | 0.00 | 0.00 | 0.00 | 32 | 1008.8 |
| 20260504184210 | 71 | 224 | 2.6 | 2.6 | 0.00 | 0.00 | 0.00 | 30 | 1008.8 |
| 20260504183706 | 70 | 233 | 1.7 | 4.3 | 0.00 | 0.00 | 0.00 | 36 | 1008.7 |
| 20260504183203 | 70 | 236 | 1.7 | 2.6 | 0.00 | 0.00 | 0.00 | 31 | 1008.8 |
| 20260504182701 | 70 | 266 | 3.5 | 4.3 | 0.00 | 0.00 | 0.00 | 32 | 1008.6 |
| 20260504182158 | 71 | 254 | 4.3 | 6.1 | 0.00 | 0.00 | 0.00 | 31 | 1008.8 |
| 20260504181655 | 70 | 282 | 6.1 | 7.0 | 0.00 | 0.00 | 0.00 | 31 | 1009.0 |
| 20260504181153 | 69 | 270 | 4.3 | 5.2 | 0.00 | 0.00 | 0.00 | 33 | 1009.2 |
| 20260504180652 | 69 | 233 | 3.5 | 6.1 | 0.00 | 0.00 | 0.00 | 32 | 1009.2 |
| 20260504180150 | 69 | 257 | 6.1 | 7.0 | 0.00 | 0.00 | 0.00 | 31 | 1009.3 |
| 20260504175647 | 69 | 248 | 2.6 | 4.3 | 0.00 | 0.00 | 0.00 | 34 | 1009.2 |
| 20260504175143 | 69 | 243 | 0.9 | 1.7 | 0.00 | 0.00 | 0.00 | 33 | 1009.3 |
| 20260504174642 | 68 | 243 | 0.9 | 1.7 | 0.00 | 0.00 | 0.00 | 35 | 1009.4 |
| 20260504174138 | 69 | 276 | 3.5 | 6.1 | 0.00 | 0.00 | 0.00 | 34 | 1009.5 |
| 20260504173635 | 68 | 281 | 6.1 | 7.8 | 0.00 | 0.00 | 0.00 | 32 | 1009.7 |
| 20260504173133 | 69 | 273 | 4.3 | 5.2 | 0.00 | 0.00 | 0.00 | 31 | 1009.5 |
| 20260504172629 | 68 | 208 | 1.7 | 2.6 | 0.00 | 0.00 | 0.00 | 33 | 1009.7 |
| 20260504172126 | 68 | 251 | 4.3 | 6.1 | 0.00 | 0.00 | 0.00 | 33 | 1009.6 |
| 20260504171622 | 68 | 231 | 4.3 | 6.1 | 0.00 | 0.00 | 0.00 | 32 | 1009.6 |
| 20260504171120 | 68 | 276 | 3.5 | 5.2 | 0.00 | 0.00 | 0.00 | 34 | 1009.7 |
| 20260504170615 | 67 | 238 | 5.2 | 6.1 | 0.00 | 0.00 | 0.00 | 32 | 1009.8 |